Overview Statistics Trail Chart Weather Telemetry Raw packets
 

This is the latest recevied weather packets stored in our database for station/object K1NOT-WX. If no packets are shown the sender has not sent any weather packets the latest 10 day(s).

<< 28 29 30 31 32 33 34 >>
Time Temp. Humidity Pressure Rain* Wind** Luminosity Snow
1777089432 12.78° C 41% 1006.4 hPa 0 mm - - -
1777088532 12.78° C 40% 1006.4 hPa 0 mm - - -
1777087632 13.33° C 37% 1006.8 hPa 0 mm - - -
1777086732 13.89° C 35% 1006.8 hPa 0 mm - - -
1777085832 14.44° C 34% 1006.8 hPa 0 mm - - -
1777084932 14.44° C 34% 1006.8 hPa 0 mm - - -
1777084032 15° C 34% 1006.8 hPa 0 mm - - -
1777083132 15° C 32% 1007.1 hPa 0 mm - - -
1777082232 15.56° C 31% 1007.1 hPa 0 mm - - -
1777081332 16.11° C 32% 1007.4 hPa 0 mm - - -
1777080432 15.56° C 30% 1007.4 hPa 0 mm - - -
1777079532 16.11° C 29% 1007.4 hPa 0 mm - - -
1777078632 16.11° C 28% 1007.4 hPa 0 mm - - -
1777077732 16.11° C 29% 1007.4 hPa 0 mm - - -
1777076832 16.67° C 31% 1007.4 hPa 0 mm - - -
1777075932 16.67° C 30% 1007.8 hPa 0 mm - - -
1777075032 16.11° C 30% 1008.1 hPa 0 mm - - -
1777074132 16.11° C 29% 1008.1 hPa 0 mm - - -
1777073232 16.11° C 29% 1008.5 hPa 0 mm - - -
1777072332 15.56° C 30% 1008.5 hPa 0 mm - - -
1777071432 15.56° C 31% 1008.5 hPa 0 mm - - -
1777070532 15.56° C 33% 1008.8 hPa 0 mm - - -
1777069632 16.11° C 30% 1008.8 hPa 0 mm - - -
1777068732 16.11° C 32% 1009.1 hPa 0 mm - - -
1777067832 16.11° C 34% 1009.1 hPa 0 mm - - -

* Rain latest hour (hover to see other rain measurements)
** Current wind speed in m/s (hover to see current wind gust speed)